Regional Weather Roundup
Issued by NWS

Current Version | Previous Version | Text Only | Print | Product List | Glossary On
Versions: 1 2 3 4 5 6 7 8 9 10 11 12 13 14 15 16 17 18 19 20 21 22 23 24 25 26 27 28 29 30 31 32 33 34 35 36 37 38 39 40 41 42 43 44
000
ASUS46 KPQR 260110
RWROR

OREGON REGIONAL WEATHER ROUNDUP
NATIONAL WEATHER SERVICE PORTLAND OR
500 PM PST THU DEC 25 2014

NOTE: "FAIR" INDICATES FEW OR NO CLOUDS BELOW 12,000 FEET WITH
NO SIGNIFICANT WEATHER AND/OR OBSTRUCTIONS TO VISIBILITY.

ORZ001>013-260200-
NORTHWEST OREGON


CITY           SKY/WX    TMP DP  RH WIND       PRES   REMARKS
ASTORIA        CLOUDY    46  44  93 CALM      30.25S
NEWPORT        RAIN      46  45  93 CALM      30.31R
PORTLAND       CLOUDY    46  43  89 CALM      30.26R
VANCOUVER WA   CLOUDY    45  41  86 CALM      30.25S
SCAPPOOSE      CLOUDY    44  42  93 W3        30.25R
HILLSBORO      CLOUDY    45  42  89 S3        30.25S
AURORA         CLOUDY    44  42  93 CALM      30.27S
MCMINNVILLE    CLOUDY    46  42  86 SW3       30.27R
SALEM          CLOUDY    47  39  74 CALM      30.25S
CORVALLIS      CLOUDY    45  39  81 W6        30.28S
EUGENE         MOCLDY    46  41  82 W6        30.27S
$$

ORZ021-028-260200-
SOUTHWEST OREGON


CITY           SKY/WX    TMP DP  RH WIND       PRES   REMARKS
NORTH BEND     MOCLDY    48  45  87 CALM      30.31S
BROOKINGS      CLEAR     46  41  83 CALM      30.28R
ROSEBURG       CLEAR     45  41  86 CALM      30.28R
SEXTON SUMMIT  CLOUDY    30  30 100 VRB3      30.18S FOG
MEDFORD        FAIR      42  34  73 N3        30.26R
$$

ORZ014>016-041-260200-
COLUMBIA GORGE


CITY           SKY/WX    TMP DP  RH WIND       PRES   REMARKS
TROUTDALE      MOCLDY    45  43  93 CALM      30.25R
THE DALLES     MOCLDY    47  34  60 W14G26    30.18R
$$

ORZ029>031-041-044-049-050-061>064-502-503-505>511-260200-
EASTERN OREGON


CITY           SKY/WX    TMP DP  RH WIND       PRES   REMARKS
REDMOND        MOCLDY    35  27  72 W3        30.13S
BEND           PTCLDY    34  25  69 NW8       30.14S WCI  27
PRINEVILLE     CLOUDY    36  28  75 NW5       30.14R WCI  32
KLAMATH FALLS  CLEAR     44  22  41 NW15      30.12R
LAKEVIEW       CLOUDY    30  21  69 N7        30.08R WCI  23
HERMISTON      CLOUDY    38  33  82 CALM      30.14R
PENDLETON      MOCLDY    38  32  79 SW7       30.12R WCI  33
JOHN DAY       CLOUDY    31  28  89 W7        30.09S WCI  25
MEACHAM        CLOUDY    30  28  92 CALM      30.06R
LA GRANDE      CLOUDY    36  21  55 NW10      30.08R WCI  28
BAKER CITY     PTCLDY    26  22  84 N7        30.07R WCI  18
BURNS          CLOUDY    31  21  66 W10       30.07R WCI  22
ROME             N/A     33  20  58 NW15      30.01R WCI  23
ONTARIO        CLEAR     34  24  67 NW9       30.08R WCI  27
$$



USA.gov is the U.S. government's official web portal to all federal, state and local government web resources and services.